Overview Statistics Trail Chart Weather Telemetry Raw packets
 

This is the latest recevied weather packets stored in our database for station/object K0QED. If no packets are shown the sender has not sent any weather packets the latest 10 day(s).

<< 65 66 67 68 69 70 71 >>
Time Temp. Humidity Pressure Rain* Wind** Luminosity Snow
1788166571 12.78° C 84% 1025.7 hPa 0 mm - 0 W/m² -
1788166266 12.78° C 84% 1025.9 hPa 0 mm - 0 W/m² -
1788165962 12.78° C 85% 1025.9 hPa 0 mm - 0 W/m² -
1788165658 12.78° C 84% 1026.2 hPa 0 mm - 0 W/m² -
1788165354 12.78° C 85% 1025.9 hPa 0 mm - 0 W/m² -
1788165049 13.33° C 82% 1026.2 hPa 0 mm - 0 W/m² -
1788164748 12.78° C 81% 1026.5 hPa 0 mm - 0 W/m² -
1788164443 12.78° C 84% 1026.6 hPa 0 mm - 0 W/m² -
1788164139 12.78° C 84% 1026.6 hPa 0 mm - 0 W/m² -
1788163835 12.78° C 84% 1026.5 hPa 0 mm - 0 W/m² -
1788163535 12.78° C 86% 1026.5 hPa 0 mm - 0 W/m² -
1788163230 12.78° C 84% 1026.9 hPa 0 mm - 0 W/m² -
1788162925 12.78° C 85% 1026.7 hPa 0 mm - 0 W/m² -
1788162621 13.33° C 83% 1026.9 hPa 0 mm - 0 W/m² -
1788162321 13.33° C 82% 1026.9 hPa 0 mm - 0 W/m² -
1788162020 12.78° C 85% 1027.1 hPa 0 mm - 0 W/m² -
1788161715 12.22° C 88% 1027.1 hPa 0 mm - 0 W/m² -
1788161414 11.67° C 91% 1027 hPa 0 mm - 0 W/m² -
1788161110 11.67° C 91% 1027 hPa 0 mm - 0 W/m² -
1788160806 12.22° C 92% 1027 hPa 0 mm - 0 W/m² -
1788160505 12.22° C 91% 1027.1 hPa 0 mm - 0 W/m² -
1788160201 11.67° C 90% 1027.4 hPa 0 mm - 0 W/m² -
1788159899 11.67° C 92% 1027.4 hPa 0 mm - 0 W/m² -
1788159598 11.67° C 93% 1027.1 hPa 0 mm - 0 W/m² -
1788159297 11.67° C 95% 1027.4 hPa 0 mm - 0 W/m² -

* Rain latest hour (hover to see other rain measurements)
** Current wind speed in m/s (hover to see current wind gust speed)